Stations météo

réclame
Mon MeteoGroup
Kaisersbach-Cronhütte, Allemagne (10747): Température de l'air & dewpoint: 13.07.2018 19:00:00 - 19.07.2018 19:00:00 (CEST)Kaisersbach-Cronhütte, Allemagne (10747): Température de l'air 5cm & Température de l'air -5cm: 13.07.2018 19:00:00 - 19.07.2018 19:00:00 (CEST)Kaisersbach-Cronhütte, Allemagne (10747): Température de l'air -20cm & Température de l'air -100cm: 13.07.2018 19:00:00 - 19.07.2018 19:00:00 (CEST)Kaisersbach-Cronhütte, Allemagne (10747): Vitesse du vent & gusts: 13.07.2018 19:00:00 - 19.07.2018 19:00:00 (CEST)Kaisersbach-Cronhütte, Allemagne (10747): Direction du vent: 13.07.2018 19:00:00 - 19.07.2018 19:00:00 (CEST)Kaisersbach-Cronhütte, Allemagne (10747): reduced air pressure: 13.07.2018 19:00:00 - 19.07.2018 19:00:00 (CEST)Kaisersbach-Cronhütte, Allemagne (10747): visibility: 13.07.2018 19:00:00 - 19.07.2018 19:00:00 (CEST)Kaisersbach-Cronhütte, Allemagne (10747): Ensoleillement: 13.07.2018 19:00:00 - 19.07.2018 19:00:00 (CEST)Kaisersbach-Cronhütte, Allemagne (10747): Quantités de précipitations: 13.07.2018 19:00:00 - 19.07.2018 19:00:00 (CEST)
Date & Time tt [°C] td [°C] tt 5cm [°C] tt -5cm [°C] tt -20cm [°C] tt -100cm [°C] ff [km/h] ff [knt] fx [km/h] fx [knt] dd ppp [hPa] vv [km] sd [min] rr [mm]
19.07.2018 19:00:00 27,0 9,0 30,6 33,7 28,4 19,5 4 2 16 9 N - 51 55 0,0
19.07.2018 18:00:00 27,0 7,7 33,2 34,9 28,0 19,5 6 4 19 10 NNW - 60 50 0,0
19.07.2018 17:00:00 27,1 7,8 32,5 35,3 27,5 19,5 5 3 21 11 S - 67 55 0,0
19.07.2018 16:00:00 26,9 7,9 33,4 35,5 26,7 19,5 7 4 39 21 W - 33 60 0,0
19.07.2018 15:00:00 26,3 8,7 32,8 34,7 25,9 19,5 9 5 19 10 WNW - 36 49 0,0
19.07.2018 14:00:00 25,3 8,1 31,7 35,3 24,9 19,5 9 5 - - SE - 33 - -
19.07.2018 13:00:00 - - - - - - - - - - - - - - -
19.07.2018 12:00:00 - - - - - - - - - - - - - - -
19.07.2018 11:00:00 - - - - - - - - - - - - - - -
19.07.2018 10:00:00 21,4 10,5 25,6 25,3 21,8 19,5 12 7 18 10 ESE - 37 - 0,0
19.07.2018 09:00:00 19,4 9,8 23,1 22,5 21,6 19,5 10 5 16 9 E - 20 60 0,0
19.07.2018 08:00:00 17,1 10,9 19,8 19,7 21,8 19,5 4 2 8 4 ENE - 37 60 0,0
19.07.2018 07:00:00 13,4 9,5 14,5 17,8 22,1 19,4 0 0 0 0 N - 39 40 0,0
19.07.2018 06:00:00 - - - - - - - - - - - - - - -
19.07.2018 05:00:00 10,6 8,9 8,8 18,2 23,1 19,4 0 0 4 2 N - 33 0 0,0
19.07.2018 04:00:00 11,2 9,1 9,4 18,8 23,6 19,4 0 0 4 2 N - 33 0 0,0
19.07.2018 03:00:00 11,9 9,1 9,8 19,6 24,1 19,4 2 1 4 2 W - 37 0 0,0
19.07.2018 02:00:00 12,2 9,4 10,5 20,3 24,7 19,4 3 1 4 2 NW - 37 0 0,0
19.07.2018 01:00:00 13,2 9,8 11,1 21,2 25,2 19,4 0 0 3 1 N - 38 0 0,0
19.07.2018 00:00:00 - - - - - - - - - - - - - - -
18.07.2018 23:00:00 15,4 9,8 12,7 23,6 26,4 19,4 0 0 3 2 N - 46 0 0,0
18.07.2018 22:00:00 17,8 10,2 14,0 25,4 26,9 19,4 2 1 5 3 N - 46 0 0,0
18.07.2018 21:00:00 20,8 9,4 17,9 27,8 27,3 19,4 4 2 16 9 NW - 66 42 0,0
18.07.2018 20:00:00 24,2 9,3 25,9 29,9 27,4 19,4 8 5 16 9 NNW - 53 48 0,0
18.07.2018 19:00:00 - - - - - - - - - - - - - - -
18.07.2018 18:00:00 - - - - - - 12 6 24 13 NW - - - 0,0
18.07.2018 17:00:00 - - - - - - - - - - - - - - -
18.07.2018 16:00:00 - - - - - - - - - - - - - - -
18.07.2018 15:00:00 - - - - - - - - - - - - - - -
18.07.2018 14:00:00 - - - - - - - - - - - - - - -
18.07.2018 13:00:00 23,2 11,2 28,1 31,0 23,3 19,4 8 5 18 10 N 1016,5 45 - -
18.07.2018 12:00:00 22,8 12,5 25,9 30,3 22,4 19,4 8 4 17 9 WNW 1016,7 40 - -
18.07.2018 11:00:00 22,7 11,7 30,1 28,7 21,6 19,4 5 3 12 6 NNE 1016,8 32 60 -
18.07.2018 10:00:00 21,7 12,9 26,5 25,5 21,1 19,4 5 3 11 6 WSW 1017,0 39 60 0,0
18.07.2018 09:00:00 19,4 12,1 23,8 22,1 20,9 19,4 8 4 12 7 NNE 1017,4 33 60 0,0
18.07.2018 08:00:00 16,3 12,3 18,6 19,1 21,0 19,4 3 2 5 3 SE 1017,9 25 60 0,0
18.07.2018 07:00:00 12,5 10,0 13,5 17,3 21,3 19,4 0 0 3 2 N 1018,7 16 37 0,0
18.07.2018 06:00:00 10,8 9,9 9,5 17,1 21,7 19,4 0 0 3 2 N 1018,8 18 0 0,0
18.07.2018 05:00:00 11,3 10,1 9,8 17,6 22,1 19,4 0 0 3 1 N 1018,6 17 0 0,0
18.07.2018 04:00:00 11,9 10,5 10,1 18,2 22,6 19,4 0 0 4 2 N 1018,5 27 0 0,0
18.07.2018 03:00:00 12,7 10,9 10,7 18,8 23,0 19,4 1 1 4 2 NNW 1018,3 31 0 0,0
18.07.2018 02:00:00 13,5 11,3 11,5 19,5 23,5 19,4 2 1 4 2 N 1017,9 32 0 0,0
18.07.2018 01:00:00 14,1 11,6 11,6 20,3 24,0 19,4 0 0 5 3 N 1017,6 30 0 0,0
18.07.2018 00:00:00 15,7 11,7 12,7 21,3 24,5 19,4 2 1 10 5 WNW 1017,0 37 0 0,0
17.07.2018 23:00:00 18,5 11,9 15,0 22,3 25,0 19,4 5 3 13 7 SW 1016,4 44 0 0,0
17.07.2018 22:00:00 18,8 12,1 15,3 23,7 25,4 19,4 2 1 10 6 SSW 1016,2 57 0 0,0
17.07.2018 21:00:00 20,9 11,8 18,2 25,6 25,7 19,4 6 3 16 9 WSW 1015,2 68 31 0,0
17.07.2018 20:00:00 24,1 10,5 24,9 27,4 25,7 19,4 8 5 19 10 SW 1013,8 62 48 0,0
17.07.2018 19:00:00 25,2 8,9 27,5 28,1 25,8 19,4 10 6 19 11 WNW 1013,4 68 21 0,0
17.07.2018 18:00:00 23,8 8,7 24,1 27,9 25,9 19,4 9 5 21 11 W 1013,9 70 2 0,0
17.07.2018 17:00:00 22,8 11,5 26,8 28,5 26,0 19,4 10 6 45 25 NW 1014,1 59 12 0,2
17.07.2018 16:00:00 25,6 9,5 26,4 31,5 25,7 19,4 18 10 29 16 W 1013,0 52 12 0,0
17.07.2018 15:00:00 26,6 9,0 33,2 33,6 24,9 19,4 11 6 27 15 WNW 1012,8 70 47 0,0
17.07.2018 14:00:00 25,4 8,6 27,6 33,9 23,9 19,4 12 6 29 16 W 1013,3 59 48 0,0
17.07.2018 13:00:00 25,4 9,7 29,0 32,9 22,9 19,4 11 6 26 14 WNW 1013,8 54 59 0,0
17.07.2018 12:00:00 24,9 11,6 30,3 30,9 21,9 19,4 14 7 23 12 W 1014,0 32 60 0,0
17.07.2018 11:00:00 24,0 11,3 29,5 28,1 21,1 19,4 10 6 20 11 WSW 1013,9 49 60 0,0
17.07.2018 10:00:00 22,8 14,5 27,3 25,1 20,5 19,4 5 3 10 5 SW 1013,8 45 60 0,0
17.07.2018 09:00:00 20,0 15,0 24,2 21,5 20,3 19,4 3 2 6 4 NNE 1014,2 43 60 0,0
17.07.2018 08:00:00 15,3 12,5 18,7 18,4 20,4 19,4 2 1 4 2 E 1015,2 29 60 0,0
17.07.2018 07:00:00 11,9 10,7 12,7 16,6 20,7 19,4 2 1 5 3 ESE 1015,7 18 39 0,0
17.07.2018 06:00:00 10,2 9,9 9,1 16,3 21,1 19,4 0 0 2 1 N 1015,6 10 0 0,0
17.07.2018 05:00:00 10,5 10,2 9,2 16,8 21,6 19,4 0 0 3 1 N 1015,4 10 0 0,0
17.07.2018 04:00:00 11,1 10,8 9,8 17,3 22,0 19,4 0 0 4 2 N 1015,1 9 0 0,0
17.07.2018 03:00:00 11,3 10,8 9,9 17,9 22,5 19,4 0 0 0 0 N 1015,1 7 0 0,0
17.07.2018 02:00:00 11,9 11,2 10,2 18,6 23,0 19,4 0 0 5 3 N 1014,8 21 0 0,0
17.07.2018 01:00:00 12,8 11,8 10,7 19,5 23,5 19,4 2 1 3 1 W 1014,3 27 0 0,0
17.07.2018 00:00:00 13,5 12,0 11,9 20,4 24,0 19,4 4 2 5 3 WNW 1014,1 30 0 0,0
16.07.2018 23:00:00 14,6 12,4 12,7 21,6 24,5 19,4 2 1 3 2 NW 1013,7 33 0 0,0
16.07.2018 22:00:00 16,4 12,5 13,9 23,2 24,9 19,4 2 1 5 3 WNW 1012,9 50 0 0,0
16.07.2018 21:00:00 19,2 12,4 16,9 25,4 25,2 19,4 3 2 9 5 WNW 1011,7 70 41 0,0
16.07.2018 20:00:00 21,9 13,0 23,6 27,4 25,2 19,4 7 4 14 7 E 1010,8 70 48 0,0
16.07.2018 19:00:00 22,4 12,7 24,2 28,7 24,9 19,3 8 4 15 8 SE 1010,8 70 28 0,0
16.07.2018 18:00:00 22,4 12,4 25,0 29,4 24,5 19,3 9 5 22 12 E 1010,9 70 30 0,0
16.07.2018 17:00:00 24,2 13,2 29,6 30,0 23,9 19,4 7 4 11 6 SW 1010,5 38 43 0,0
16.07.2018 16:00:00 22,0 13,0 24,0 29,3 23,2 19,3 8 4 13 7 E 1011,4 66 40 0,0
16.07.2018 15:00:00 22,6 14,9 27,8 26,8 22,9 19,3 6 4 10 5 S 1011,9 40 33 0,0
16.07.2018 14:00:00 17,1 15,4 17,9 23,9 22,8 19,3 8 4 17 9 W 1013,6 23 0 0,6
16.07.2018 13:00:00 19,3 13,4 18,4 27,2 22,2 19,3 8 4 15 8 NW 1013,6 32 18 0,0
16.07.2018 12:00:00 21,0 12,7 28,3 27,0 21,7 19,3 8 5 13 7 E 1013,3 40 32 0,0
16.07.2018 11:00:00 19,2 11,7 21,9 23,3 21,4 19,3 4 2 10 5 E 1014,3 64 3 0,0
16.07.2018 10:00:00 18,5 13,0 20,1 22,9 21,2 19,3 8 4 11 6 SW 1014,3 50 16 0,0
16.07.2018 09:00:00 18,5 13,8 21,5 21,3 21,1 19,3 5 3 9 5 SE 1014,4 47 17 0,0
16.07.2018 08:00:00 16,4 13,7 16,2 19,4 21,2 19,3 3 1 8 4 SSW 1014,8 33 17 0,0
16.07.2018 07:00:00 13,9 13,1 14,0 18,3 21,4 19,3 4 2 7 4 W 1015,2 14 0 0,0
16.07.2018 06:00:00 13,7 13,1 13,6 18,4 21,7 19,3 2 1 6 3 NW 1015,5 10 0 0,1
16.07.2018 05:00:00 14,1 12,9 14,0 18,8 22,0 19,3 2 1 6 3 NW 1015,7 28 0 0,3
16.07.2018 04:00:00 14,3 12,2 14,2 19,1 22,3 19,3 2 1 16 9 N 1015,7 14 0 0,0
16.07.2018 03:00:00 14,3 11,9 14,1 19,4 22,6 19,3 2 1 6 4 WNW 1015,3 34 0 0,0
16.07.2018 02:00:00 14,7 11,9 14,4 19,7 22,9 19,3 0 0 6 4 N 1015,4 45 0 0,0
16.07.2018 01:00:00 14,3 11,7 14,4 19,9 23,3 19,3 0 0 4 2 N 1015,9 45 0 0,0
16.07.2018 00:00:00 14,6 11,8 13,3 20,2 23,8 19,3 3 2 7 4 SSE 1015,9 41 0 0,0
15.07.2018 23:00:00 15,0 11,5 13,2 20,9 24,3 19,3 3 1 11 6 WSW 1015,7 48 0 0,0
15.07.2018 22:00:00 16,1 11,7 14,3 22,2 24,7 19,3 6 3 13 7 N 1015,5 49 0 0,0
15.07.2018 21:00:00 19,1 12,3 18,1 23,7 25,1 19,3 6 3 9 5 SW 1014,4 70 0 0,0
15.07.2018 20:00:00 20,9 12,2 21,0 25,2 25,3 19,2 4 2 14 8 NW 1014,0 70 4 0,0
15.07.2018 19:00:00 20,6 14,1 22,6 26,5 25,4 19,2 3 2 9 5 NNW 1014,2 70 0 0,0
15.07.2018 18:00:00 22,2 10,0 23,4 27,7 25,4 19,2 7 4 21 11 SE 1014,1 70 41 0,0
15.07.2018 17:00:00 21,0 11,9 19,4 27,3 25,5 19,2 7 4 18 10 SE 1014,6 66 12 0,7
15.07.2018 16:00:00 19,2 11,5 20,8 27,6 25,6 19,2 10 5 32 17 SSE 1015,7 54 0 0,0
15.07.2018 15:00:00 22,8 12,4 24,1 29,5 25,3 19,2 4 2 14 7 SSW 1014,5 47 0 0,0
15.07.2018 14:00:00 22,8 9,9 25,4 32,9 24,5 19,2 8 5 29 16 N 1014,5 62 34 0,0
15.07.2018 13:00:00 26,1 10,4 34,7 33,4 23,5 19,2 6 3 22 12 ENE 1014,0 35 60 0,0
15.07.2018 12:00:00 24,8 12,7 29,9 29,4 22,8 19,2 7 4 16 8 WSW 1014,5 36 37 0,0
15.07.2018 11:00:00 23,8 13,2 25,7 28,5 22,1 19,2 8 4 16 9 SSW 1015,0 43 54 0,0
15.07.2018 10:00:00 24,1 13,7 27,9 26,3 21,6 19,2 5 3 10 5 SSW 1014,8 45 60 0,0
15.07.2018 09:00:00 21,5 14,1 23,9 22,8 21,3 19,1 5 3 10 5 S 1015,5 35 60 0,0
15.07.2018 08:00:00 16,8 13,2 20,7 19,6 21,4 19,1 0 0 3 1 N 1016,2 16 60 0,0
15.07.2018 07:00:00 13,6 10,9 14,6 17,8 21,8 19,1 2 1 3 2 W 1016,6 16 37 0,0
15.07.2018 06:00:00 11,5 10,9 10,7 17,6 22,2 19,1 0 0 2 1 N 1017,3 12 0 0,0
15.07.2018 05:00:00 11,9 11,0 10,7 18,1 22,6 19,1 0 0 3 1 N 1017,3 17 0 0,0
15.07.2018 04:00:00 12,6 11,4 11,1 18,8 23,1 19,1 0 0 5 3 N 1017,2 16 0 0,0
15.07.2018 03:00:00 13,1 11,7 12,1 19,4 23,6 19,1 0 0 5 3 N 1017,3 21 0 0,0
15.07.2018 02:00:00 14,0 12,0 13,3 20,2 24,1 19,1 0 0 3 2 N 1017,7 24 0 0,0
15.07.2018 01:00:00 14,6 12,1 13,0 21,0 24,6 19,1 0 0 3 2 N 1017,4 27 0 0,0
15.07.2018 00:00:00 15,8 13,1 14,9 21,9 25,1 19,1 0 0 3 2 N 1017,3 26 0 0,0
14.07.2018 23:00:00 16,8 13,3 14,7 22,9 25,6 19,1 3 1 3 2 NW 1017,0 31 0 0,0
14.07.2018 22:00:00 18,8 13,8 16,0 24,6 26,1 19,1 2 1 5 3 NW 1016,4 12 0 0,0
14.07.2018 21:00:00 21,1 14,5 19,5 26,6 26,3 19,1 3 2 5 3 WNW 1015,5 42 20 0,0
14.07.2018 20:00:00 22,7 14,9 23,2 28,1 26,5 19,0 2 1 14 8 NNW 1015,2 42 5 0,0
14.07.2018 19:00:00 24,7 11,6 25,3 29,8 26,3 19,0 9 5 14 8 ESE 1015,2 48 30 0,0
14.07.2018 18:00:00 26,4 12,0 30,0 31,6 26,0 19,0 6 3 16 9 SE 1015,0 50 58 0,0
14.07.2018 17:00:00 26,0 13,2 30,6 30,4 25,5 19,0 3 2 16 9 E 1015,5 44 22 0,0
14.07.2018 16:00:00 26,1 12,5 31,8 31,9 24,9 19,0 10 6 20 11 ESE 1015,9 26 60 0,0
14.07.2018 15:00:00 24,7 14,8 29,3 29,7 24,5 19,0 9 5 19 11 E 1016,5 39 47 0,0
14.07.2018 14:00:00 22,2 16,8 27,3 28,9 24,2 19,0 8 4 16 9 ESE 1017,5 25 25 1,6
14.07.2018 13:00:00 20,9 14,4 18,9 29,7 23,9 19,0 6 4 19 10 N 1018,5 17 24 0,1
14.07.2018 12:00:00 22,2 14,1 23,1 28,2 23,3 19,0 5 3 13 7 NW 1017,8 48 15 0,0
14.07.2018 11:00:00 24,7 12,5 29,9 29,9 22,6 19,0 5 3 11 6 S 1017,4 44 58 0,0
14.07.2018 10:00:00 23,6 12,6 28,5 27,0 22,1 19,0 5 3 10 5 ENE 1017,7 41 60 0,0
14.07.2018 09:00:00 20,8 13,2 25,5 23,6 21,8 19,0 7 4 9 5 NE 1018,3 43 58 0,0
14.07.2018 08:00:00 17,0 13,7 20,4 20,3 22,0 19,0 0 0 3 2 N 1018,8 24 20 0,0
14.07.2018 07:00:00 14,2 11,9 15,4 19,4 22,2 18,9 2 1 3 2 WNW 1019,3 22 16 0,0
14.07.2018 06:00:00 12,7 11,2 12,6 18,8 22,6 18,9 0 0 2 1 N 1019,7 22 0 0,0
14.07.2018 05:00:00 12,8 11,3 11,4 19,3 23,0 18,9 2 1 3 2 NW 1019,7 26 0 0,0
14.07.2018 04:00:00 13,8 11,4 13,1 20,0 23,4 18,9 0 0 3 2 N 1019,4 29 0 0,0
14.07.2018 03:00:00 14,3 11,6 13,7 20,4 23,9 18,9 1 1 3 2 W 1019,4 35 0 0,0
14.07.2018 02:00:00 14,7 12,0 12,6 21,1 24,4 18,9 3 2 5 3 NNW 1019,5 34 0 0,0
14.07.2018 01:00:00 16,2 11,7 14,6 22,0 24,9 18,9 4 2 6 3 WNW 1019,5 47 0 0,0
14.07.2018 00:00:00 16,0 11,8 15,1 22,6 25,5 18,9 3 2 4 2 WNW 1019,4 41 0 0,0
13.07.2018 23:00:00 16,3 11,8 14,0 23,9 26,0 18,9 3 1 4 2 NW 1019,2 45 0 0,0
13.07.2018 22:00:00 17,9 12,2 15,2 25,6 26,5 18,9 2 1 4 2 NE 1018,5 52 0 0,0
13.07.2018 21:00:00 20,7 11,2 18,3 28,0 26,9 18,9 3 1 10 5 NW 1017,4 58 39 0,0
13.07.2018 20:00:00 24,1 10,0 25,4 30,5 26,9 18,9 4 2 14 8 NNW 1016,6 70 48 0,0
13.07.2018 19:00:00 25,5 8,8 29,8 32,4 26,6 18,9 6 3 13 7 N 1016,4 60 60 0,0

tt = Température de l'air
td = dewpoint
tt 5cm = Température de l'air 5cm
tt -5cm = Température de l'air -5cm
tt -20cm = Température de l'air -20cm
tt -100cm = Température de l'air -100cm
ff = Vitesse du vent
fx = gusts
dd = Direction du vent
ppp = reduced air pressure
vv = visibility
sd = Ensoleillement
rr = Quantités de précipitations

stations d'obs. à proximité